Location: Buchdorf
(48.7842°N, 10.8275°E)
Time: 01:02:17
(UTC+00:00)

STARLINK-1232 - Pass Details

Date: 09 April 2020
Orbit: 548 x 551 km, 53.0° (Epoch: 30 May)

Event Time Altitude Azimuth Distance (km) Brightness Sun altitude
Rises 19:46:01 0° 292° (WNW) 2,703 8.7 -16.7°
Reaches altitude 10° 19:48:31 10° 279° (W) 1,807 7.2 -17.1°
Maximum altitude 19:51:55 25° 223° (SW) 1,105 5.2 -17.5°
Enters shadow 19:53:36 19° 186° (S) 1,314 5.3 -17.8°
